Simultaneous Nadir Overpasses (SNOs) Predictions

Prediction of SNOs between GOES-16 and NOAA-19 Satellite Orbit:

Table of predicted SNOs for the next 14.0 days since TLE Epoch: 12/10/2022
Index Date Time (GOES-16) GOES-16 Lat,Lon NOAA-19 Lat,Lon Distance(km) Time Diff (sec)
1 12/10/2022 12:54:42 -0.06, -75.21 -0.97, -71.20 457.04 80
2 12/12/2022 01:29:51 0.05, -75.19 -0.82, -78.98 432.90 80
3 12/13/2022 01:17:55 0.05, -75.19 -0.18, -76.07 100.74 80
4 12/14/2022 01:03:21 0.05, -75.20 0.53, -73.17 231.68 80
5 12/16/2022 13:26:18 -0.04, -75.25 0.59, -77.98 311.89 80
6 12/17/2022 13:11:43 -0.04, -75.26 -0.10, -75.08 21.08 80
7 12/18/2022 12:59:48 -0.04, -75.27 -0.74, -72.17 353.85 80
8 12/21/2022 01:22:59 0.03, -75.28 -0.40, -77.03 200.56 80
9 12/22/2022 01:08:24 0.03, -75.30 0.32, -74.14 132.63 80
10 12/23/2022 00:56:29 0.02, -75.31 0.98, -71.23 465.79 80
